GFSNIL_prec_cloud_234.txt.gz
Cloud_Cover
100 100 100 100 100 100 98 100 100 100 100 99 90 61 13 5 5 5 5 5 5 5
100 100 100 100 100 100 100 96 100 100 100 100 100 100 100 95 18 5 5 5 5 5
100 100 100 100 100 100 100 100 100 100 100 100 100 94 100 100 100 100 94 39 5 5
100 100 100 100 100 100 100 100 100 100 100 100 100 100 100 100 100 100 100 92 6 5
100 100 100 100 100 100 100 100 100 100 100 100 100 100 100 95 92 95 100 99 80 60
100 100 100 100 100 100 100 100 100 100 100 100 100 100 100 99 100 93 100 100 92 80
100 100 100 100 100 100 100 100 100 100 100 100 100 100 100 100 100 100 100 100 100 92
100 100 100 100 100 100 100 100 100 100 100 100 100 100 100 100 100 100 100 100 100 100
100 100 100 100 100 100 100 100 100 100 100 100 100 100 100 100 100 100 94 100 100 87
100 100 100 100 100 100 100 100 100 100 100 100 100 100 100 100 100 100 100 100 100 100
100 100 100 100 100 100 100 100 100 100 100 100 100 100 100 100 100 100 100 100 100 100
100 100 100 100 100 100 100 100 100 100 100 100 100 100 100 100 100 100 100 100 100 100
100 100 100 100 100 100 100 100 100 100 100 100 100 100 100 100 100 100 100 100 100 100
100 100 100 100 100 100 100 100 100 100 100 100 100 100 100 100 100 100 100 100 100 100

GFSNIL_prec_cloud_237.txt.gz
Cloud_Cover
100 100 100 100 100 100 100 100 100 100 99 87 82 90 100 92 5 5 5 5 5 5
100 100 100 100 100 100 100 100 100 100 100 100 100 100 100 100 100 100 59 15 5 5
100 100 100 100 100 100 100 100 100 100 100 100 100 100 98 100 100 100 100 94 100 97
100 100 100 100 100 100 100 100 100 100 100 100 100 100 100 100 100 100 100 100 100 99
100 100 100 100 100 100 100 100 100 100 100 100 100 100 100 100 100 100 100 100 100 100
100 100 100 100 100 100 100 100 100 100 100 100 100 100 100 100 87 100 100 99 93 79
100 100 100 100 100 100 100 100 100 100 100 100 100 100 100 98 100 100 100 100 100 100
100 100 100 100 100 100 100 100 100 100 100 100 100 100 100 100 100 100 100 100 100 100
100 100 100 100 100 100 100 100 100 100 100 100 100 100 100 100 100 100 100 100 100 100
100 100 100 100 100 100 100 100 100 100 100 100 100 100 100 100 100 100 100 100 100 100
100 100 100 100 100 100 100 100 100 100 100 100 100 100 100 100 100 100 100 100 100 100
100 100 100 100 100 100 100 100 100 100 100 100 100 100 100 100 100 100 100 100 100 100
90 100 100 100 100 100 100 100 100 100 100 100 100 100 100 100 100 100 100 100 100 100
6 27 98 98 100 100 100 100 100 100 100 100 100 100 100 100 100 100 100 100 100 100

GFSNIL_prec_cloud_240.txt.gz
Cloud_Cover
100 100 100 100 100 100 100 100 100 100 100 100 100 100 100 100 99 83 29 5 5 5
100 100 100 100 100 100 100 100 100 100 100 100 100 100 100 100 100 100 100 70 79 70
100 100 100 100 100 100 100 100 100 100 100 100 100 100 100 100 100 100 100 100 99 95
100 100 100 100 100 100 100 100 100 100 100 100 100 100 100 100 100 100 100 100 99 100
100 100 100 100 100 100 100 100 100 100 100 100 100 100 100 100 90 99 100 100 100 99
100 100 100 100 100 100 100 100 100 100 100 100 100 100 100 100 100 100 100 100 100 100
100 100 100 100 100 100 100 100 100 100 100 100 100 100 100 98 100 100 100 100 98 100
100 100 100 100 100 100 100 100 100 100 100 100 100 100 100 100 100 100 100 93 100 97
100 100 100 100 100 100 100 100 100 100 100 100 100 100 100 98 92 100 99 100 100 99
100 100 100 100 100 100 100 100 100 100 100 100 100 100 99 100 100 100 100 69 100 100
100 100 100 100 100 100 100 100 100 100 100 100 100 100 100 100 100 100 100 100 100 100
100 69 100 98 100 100 100 100 100 100 100 100 100 100 100 100 100 100 100 100 100 100
49 6 6 72 100 100 100 100 100 100 100 100 100 100 100 100 100 100 100 100 100 100
26 99 98 7 32 94 100 93 91 91 100 100 100 100 100 100 100 100 100 100 100 100

GFSNIL_prec_cloud_246.txt.gz
Cloud_Cover
100 100 100 100 100 100 100 100 100 100 100 100 100 100 100 100 100 100 100 100 100 31
100 100 100 100 100 100 100 100 100 100 100 100 100 100 100 100 100 100 100 100 100 100
100 100 100 100 100 100 100 100 100 100 100 100 100 100 91 100 100 100 100 100 100 100
94 100 100 100 100 100 100 100 100 100 100 100 100 100 100 100 100 100 100 100 100 100
93 100 100 100 100 100 100 100 100 100 100 100 100 100 100 100 91 100 100 100 96 100
100 100 100 100 100 100 100 100 100 100 100 100 100 100 100 100 84 100 100 100 100 100
75 80 100 100 100 100 100 100 100 100 100 100 100 100 100 100 100 88 98 100 55 86
28 82 73 100 100 100 100 100 100 100 100 100 100 100 100 100 98 100 100 100 100 100
5 56 22 75 100 87 99 100 100 100 100 100 100 100 100 100 100 100 100 100 100 100
7 5 7 100 100 100 84 100 100 100 100 100 100 100 100 100 100 100 100 100 100 32
5 5 43 86 100 56 98 100 100 100 100 100 100 100 100 100 100 100 100 100 100 100
5 5 56 56 47 23 100 8 7 78 100 100 100 100 100 100 100 100 100 100 100 100
5 5 45 5 54 40 11 5 5 5 12 96 100 95 100 100 100 100 100 100 100 100
5 5 5 42 93 47 8 23 5 1 4 12 98 100 99 86 92 100 100 100 100 100